| time (UTC) | temp C | wind direction | speed KPH | gust KPH | rain 1hr cm | rain 24hr cm | rain mn cm | humidity % | barometer mb |
| 20260509013526 | 12 | 266 | 4.8 | 11.3 | 0.00 | 0.13 | 0.13 | 91 | 1009.3 |
| 20260509013020 | 12 | 226 | 4.8 | 17.7 | 0.00 | 0.13 | 0.13 | 90 | 1009.3 |
| 20260509012514 | 12 | 245 | 8.0 | 17.7 | 0.00 | 0.13 | 0.13 | 90 | 1009.3 |
| 20260509012008 | 12 | 245 | 9.7 | 16.1 | 0.00 | 0.13 | 0.13 | 90 | 1009.4 |
| 20260509011502 | 12 | 257 | 9.7 | 16.1 | 0.00 | 0.13 | 0.13 | 90 | 1009.3 |
| 20260509010956 | 12 | 244 | 9.7 | 16.1 | 0.00 | 0.13 | 0.13 | 90 | 1009.3 |
| 20260509010450 | 12 | 233 | 9.7 | 16.1 | 0.00 | 0.13 | 0.13 | 90 | 1009.2 |
| 20260509005944 | 12 | 266 | 9.7 | 16.1 | 0.00 | 0.13 | 0.13 | 90 | 1009.2 |
| 20260509005438 | 12 | 231 | 9.7 | 19.3 | 0.00 | 0.13 | 0.13 | 90 | 1009.2 |
| 20260509004932 | 12 | 257 | 9.7 | 19.3 | 0.00 | 0.13 | 0.13 | 90 | 1009.2 |
| 20260509004427 | 12 | 259 | 9.7 | 16.1 | 0.00 | 0.13 | 0.13 | 90 | 1009.3 |
| 20260509004141 | 12 | 271 | 9.7 | 17.7 | 0.00 | 0.13 | 0.13 | 90 | 1009.3 |
| 20260509003414 | 12 | 255 | 8.0 | 17.7 | 0.00 | 0.13 | 0.13 | 90 | 1009.3 |
| 20260509002908 | 12 | 167 | 8.0 | 19.3 | 0.00 | 0.13 | 0.13 | 90 | 1009.3 |
| 20260509002402 | 12 | 239 | 9.7 | 19.3 | 0.00 | 0.13 | 0.13 | 89 | 1009.3 |
| 20260509001856 | 12 | 248 | 6.4 | 19.3 | 0.00 | 0.13 | 0.13 | 90 | 1009.4 |
| 20260509001350 | 12 | 276 | 3.2 | 8.0 | 0.03 | 0.13 | 0.13 | 92 | 1009.3 |
| 20260509000844 | 12 | 215 | 1.6 | 8.0 | 0.03 | 0.13 | 0.13 | 92 | 1009.3 |
| 20260509000340 | 12 | 131 | 1.6 | 6.4 | 0.05 | 0.13 | 0.13 | 93 | 1009.3 |
| 20260508235832 | 12 | 155 | 1.6 | 6.4 | 0.08 | 0.13 | 0.13 | 93 | 1009.2 |
| 20260508235326 | 12 | 169 | 0.0 | 3.2 | 0.08 | 0.13 | 0.13 | 92 | 1009.3 |
| 20260508234820 | 12 | 212 | 0.0 | 1.6 | 0.08 | 0.13 | 0.13 | 92 | 1009.4 |
| 20260508234314 | 12 | 217 | 1.6 | 4.8 | 0.10 | 0.13 | 0.13 | 91 | 1009.4 |
| 20260508233808 | 12 | 217 | 1.6 | 8.0 | 0.10 | 0.13 | 0.13 | 91 | 1009.4 |
| 20260508233302 | 12 | 248 | 3.2 | 8.0 | 0.10 | 0.13 | 0.13 | 91 | 1009.5 |
| 20260508233024 | 12 | 238 | 4.8 | 11.3 | 0.10 | 0.13 | 0.13 | 90 | 1009.7 |
| 20260508232250 | 12 | 261 | 6.4 | 11.3 | 0.10 | 0.13 | 0.13 | 89 | 1009.8 |
| 20260508231751 | 12 | 274 | 6.4 | 11.3 | 0.08 | 0.10 | 0.10 | 89 | 1009.8 |
| 20260508231518 | 12 | 279 | 9.7 | 16.1 | 0.08 | 0.10 | 0.10 | 88 | 1009.9 |
| 20260508231022 | 13 | 250 | 11.3 | 19.3 | 0.08 | 0.10 | 0.10 | 87 | 1010.1 |
| 20260508230251 | 13 | 276 | 11.3 | 19.3 | 0.05 | 0.08 | 0.08 | 85 | 1009.9 |
| 20260508225749 | 13 | 300 | 11.3 | 17.7 | 0.03 | 0.05 | 0.05 | 84 | 1009.8 |
| 20260508225511 | 13 | 278 | 9.7 | 16.1 | 0.03 | 0.05 | 0.05 | 82 | 1009.8 |
| 20260508224748 | 13 | 304 | 8.0 | 14.5 | 0.03 | 0.05 | 0.05 | 82 | 1009.7 |
| 20260508224513 | 13 | 300 | 6.4 | 14.5 | 0.00 | 0.03 | 0.03 | 81 | 1009.7 |
| 20260508223749 | 14 | 284 | 8.0 | 14.5 | 0.00 | 0.03 | 0.03 | 80 | 1009.6 |
| 20260508223249 | 14 | 301 | 8.0 | 14.5 | 0.00 | 0.03 | 0.03 | 79 | 1009.5 |
| 20260508223234 | 14 | 305 | 6.4 | 11.3 | 0.00 | 0.03 | 0.03 | 77 | 1009.4 |
| 20260508222249 | 15 | 307 | 6.4 | 11.3 | 0.03 | 0.03 | 0.03 | 77 | 1009.4 |
| 20260508222016 | 15 | 319 | 4.8 | 9.7 | 0.03 | 0.03 | 0.03 | 75 | 1009.3 |
| 20260508221245 | 15 | 320 | 6.4 | 9.7 | 0.03 | 0.03 | 0.03 | 75 | 1009.2 |
| 20260508220744 | 15 | 308 | 6.4 | 9.7 | 0.03 | 0.03 | 0.03 | 75 | 1009.1 |
| 20260508220244 | 15 | 307 | 4.8 | 9.7 | 0.03 | 0.03 | 0.03 | 75 | 1009.1 |
| 20260508215744 | 14 | 316 | 4.8 | 6.4 | 0.03 | 0.03 | 0.03 | 77 | 1009.2 |
| 20260508215246 | 14 | 302 | 4.8 | 8.0 | 0.03 | 0.03 | 0.03 | 76 | 1009.2 |
| 20260508214746 | 14 | 281 | 6.4 | 11.3 | 0.03 | 0.03 | 0.03 | 75 | 1009.3 |
| 20260508214245 | 14 | 295 | 8.0 | 14.5 | 0.03 | 0.03 | 0.03 | 75 | 1009.3 |
| 20260508213746 | 14 | 282 | 9.7 | 17.7 | 0.03 | 0.03 | 0.03 | 74 | 1009.3 |
| 20260508213246 | 15 | 290 | 11.3 | 17.7 | 0.03 | 0.03 | 0.03 | 73 | 1009.3 |
| 20260508212743 | 15 | 271 | 12.9 | 20.9 | 0.03 | 0.03 | 0.03 | 73 | 1009.5 |
| 20260508212242 | 15 | 257 | 11.3 | 20.9 | 0.00 | 0.00 | 0.00 | 70 | 1009.6 |
| 20260508211742 | 16 | 272 | 12.9 | 22.5 | 0.00 | 0.00 | 0.00 | 72 | 1009.5 |
| 20260508211243 | 16 | 269 | 16.1 | 25.7 | 0.00 | 0.00 | 0.00 | 67 | 1009.5 |
| 20260508211004 | 16 | 242 | 19.3 | 30.6 | 0.00 | 0.00 | 0.00 | 65 | 1009.5 |
| 20260508210243 | 16 | 255 | 20.9 | 30.6 | 0.00 | 0.00 | 0.00 | 63 | 1009.6 |
| 20260508205742 | 16 | 260 | 20.9 | 33.8 | 0.00 | 0.00 | 0.00 | 63 | 1009.6 |
| 20260508205503 | 16 | 255 | 20.9 | 33.8 | 0.00 | 0.00 | 0.00 | 62 | 1009.5 |
| 20260508204743 | 16 | 254 | 19.3 | 38.6 | 0.00 | 0.00 | 0.00 | 63 | 1009.5 |
| 20260508204240 | 17 | 262 | 20.9 | 38.6 | 0.00 | 0.00 | 0.00 | 62 | 1009.7 |
| 20260508203742 | 17 | 257 | 22.5 | 33.8 | 0.00 | 0.00 | 0.00 | 61 | 1009.8 |
| 20260508203242 | 17 | 260 | 22.5 | 41.8 | 0.00 | 0.00 | 0.00 | 60 | 1009.7 |
| 20260508202741 | 17 | 282 | 24.1 | 41.8 | 0.00 | 0.00 | 0.00 | 60 | 1009.8 |
| 20260508202725 | 17 | 261 | 25.7 | 41.8 | 0.00 | 0.00 | 0.00 | 59 | 1009.8 |
| 20260508201739 | 17 | 265 | 25.7 | 41.8 | 0.00 | 0.00 | 0.00 | 58 | 1009.8 |
| 20260508201508 | 17 | 244 | 25.7 | 40.2 | 0.00 | 0.00 | 0.00 | 59 | 1009.9 |
| 20260508200739 | 17 | 254 | 25.7 | 38.6 | 0.00 | 0.00 | 0.00 | 58 | 1009.8 |
| 20260508200236 | 17 | 252 | 24.1 | 38.6 | 0.00 | 0.00 | 0.00 | 59 | 1009.8 |
| 20260508195737 | 17 | 256 | 22.5 | 38.6 | 0.00 | 0.00 | 0.00 | 58 | 1009.8 |
| 20260508195236 | 17 | 222 | 25.7 | 40.2 | 0.00 | 0.00 | 0.00 | 58 | 1009.9 |
| 20260508194958 | 17 | 274 | 27.4 | 40.2 | 0.00 | 0.00 | 0.00 | 57 | 1009.9 |
| 20260508194455 | 18 | 254 | 29.0 | 41.8 | 0.00 | 0.00 | 0.00 | 58 | 1009.8 |
| 20260508193735 | 18 | 269 | 27.4 | 41.8 | 0.00 | 0.00 | 0.00 | 57 | 1009.8 |
| 20260508193230 | 18 | 153 | 24.1 | 38.6 | 0.00 | 0.00 | 0.00 | 57 | 1009.8 |
| 20260508192942 | 18 | 240 | 22.5 | 35.4 | 0.00 | 0.00 | 0.00 | 58 | 1009.9 |
| 20260508192218 | 18 | 231 | 24.1 | 35.4 | 0.00 | 0.00 | 0.00 | 57 | 1009.9 |
| 20260508191712 | 18 | 231 | 25.7 | 38.6 | 0.00 | 0.00 | 0.00 | 57 | 1010.0 |
| 20260508191205 | 17 | 239 | 27.4 | 38.6 | 0.00 | 0.00 | 0.00 | 56 | 1010.1 |
| 20260508190659 | 17 | 245 | 27.4 | 40.2 | 0.00 | 0.00 | 0.00 | 57 | 1010.2 |
| 20260508190424 | 18 | 269 | 20.9 | 40.2 | 0.00 | 0.00 | 0.00 | 55 | 1010.2 |
| 20260508185647 | 18 | 251 | 16.1 | 29.0 | 0.00 | 0.00 | 0.00 | 59 | 1010.3 |
| 20260508185141 | 18 | 256 | 14.5 | 30.6 | 0.00 | 0.00 | 0.00 | 59 | 1010.3 |
| 20260508184635 | 18 | 269 | 16.1 | 30.6 | 0.00 | 0.00 | 0.00 | 58 | 1010.3 |
| 20260508184130 | 18 | 252 | 19.3 | 32.2 | 0.00 | 0.00 | 0.00 | 60 | 1010.5 |
| 20260508183848 | 17 | 222 | 22.5 | 32.2 | 0.00 | 0.00 | 0.00 | 58 | 1010.4 |
| 20260508183117 | 18 | 226 | 17.7 | 32.2 | 0.00 | 0.00 | 0.00 | 60 | 1010.4 |
| 20260508182838 | 18 | 224 | 12.9 | 35.4 | 0.00 | 0.00 | 0.00 | 59 | 1010.4 |
| 20260508182548 | 18 | 167 | 11.3 | 35.4 | 0.00 | 0.00 | 0.00 | 58 | 1010.5 |
| 20260508182041 | 18 | 277 | 11.3 | 32.2 | 0.00 | 0.00 | 0.00 | 57 | 1010.4 |
| 20260508181319 | 18 | 217 | 11.3 | 32.2 | 0.00 | 0.00 | 0.00 | 59 | 1010.5 |
| 20260508180547 | 18 | 193 | 11.3 | 27.4 | 0.00 | 0.00 | 0.00 | 59 | 1010.5 |
| 20260508180042 | 18 | 255 | 16.1 | 35.4 | 0.00 | 0.00 | 0.00 | 58 | 1010.5 |
| 20260508175535 | 18 | 242 | 22.5 | 35.4 | 0.00 | 0.00 | 0.00 | 56 | 1010.6 |
| 20260508175029 | 18 | 236 | 24.1 | 40.2 | 0.00 | 0.00 | 0.00 | 60 | 1010.7 |
| 20260508174524 | 18 | 213 | 19.3 | 35.4 | 0.00 | 0.00 | 0.00 | 58 | 1010.9 |
| 20260508174017 | 17 | 257 | 22.5 | 35.4 | 0.00 | 0.00 | 0.00 | 59 | 1011.1 |
| 20260508173512 | 17 | 255 | 20.9 | 35.4 | 0.00 | 0.00 | 0.00 | 57 | 1011.2 |
| 20260508173005 | 18 | 249 | 16.1 | 35.4 | 0.00 | 0.00 | 0.00 | 59 | 1011.2 |
| 20260508172459 | 18 | 215 | 17.7 | 35.4 | 0.00 | 0.00 | 0.00 | 60 | 1011.4 |
| 20260508171953 | 17 | 257 | 16.1 | 35.4 | 0.00 | 0.00 | 0.00 | 59 | 1011.5 |
| 20260508171447 | 17 | 207 | 14.5 | 30.6 | 0.00 | 0.00 | 0.00 | 58 | 1011.6 |
| 20260508170941 | 17 | 241 | 17.7 | 30.6 | 0.00 | 0.00 | 0.00 | 60 | 1011.6 |
| 20260508170435 | 17 | 275 | 17.7 | 33.8 | 0.00 | 0.00 | 0.00 | 60 | 1011.7 |
| 20260508165929 | 17 | 226 | 19.3 | 33.8 | 0.00 | 0.00 | 0.00 | 63 | 1011.7 |
| 20260508165643 | 17 | 255 | 17.7 | 33.8 | 0.00 | 0.00 | 0.00 | 58 | 1011.8 |
| 20260508165139 | 17 | 246 | 16.1 | 29.0 | 0.00 | 0.00 | 0.00 | 59 | 1012.0 |
| 20260508164639 | 17 | 164 | 16.1 | 29.0 | 0.00 | 0.00 | 0.00 | 62 | 1012.0 |
| 20260508164128 | 17 | 256 | 16.1 | 29.0 | 0.00 | 0.00 | 0.00 | 59 | 1012.1 |
| 20260508163359 | 17 | 292 | 16.1 | 27.4 | 0.00 | 0.00 | 0.00 | 60 | 1012.3 |
| 20260508162853 | 16 | 282 | 16.1 | 27.4 | 0.00 | 0.00 | 0.00 | 62 | 1012.4 |
| 20260508162347 | 16 | 259 | 19.3 | 27.4 | 0.00 | 0.00 | 0.00 | 60 | 1012.5 |
| 20260508161841 | 16 | 264 | 19.3 | 29.0 | 0.00 | 0.00 | 0.00 | 58 | 1012.6 |
| 20260508161334 | 16 | 247 | 16.1 | 29.0 | 0.00 | 0.00 | 0.00 | 61 | 1012.7 |
| 20260508160829 | 16 | 265 | 16.1 | 27.4 | 0.00 | 0.00 | 0.00 | 61 | 1012.7 |
| 20260508160323 | 16 | 255 | 14.5 | 27.4 | 0.00 | 0.00 | 0.00 | 62 | 1012.7 |
| 20260508155817 | 16 | 262 | 12.9 | 20.9 | 0.00 | 0.00 | 0.00 | 63 | 1012.8 |
| 20260508155311 | 16 | 269 | 16.1 | 33.8 | 0.00 | 0.00 | 0.00 | 62 | 1012.8 |
| 20260508154805 | 15 | 269 | 17.7 | 33.8 | 0.00 | 0.00 | 0.00 | 60 | 1012.8 |
| 20260508154259 | 16 | 231 | 16.1 | 27.4 | 0.00 | 0.00 | 0.00 | 61 | 1012.9 |
| 20260508153753 | 16 | 271 | 16.1 | 27.4 | 0.00 | 0.00 | 0.00 | 64 | 1012.8 |
| 20260508153247 | 15 | 255 | 17.7 | 29.0 | 0.00 | 0.00 | 0.00 | 64 | 1012.8 |
| 20260508152741 | 15 | 270 | 17.7 | 29.0 | 0.00 | 0.00 | 0.00 | 63 | 1012.8 |
| 20260508152235 | 15 | 281 | 14.5 | 25.7 | 0.00 | 0.00 | 0.00 | 65 | 1012.9 |
| 20260508151729 | 15 | 264 | 14.5 | 25.7 | 0.00 | 0.00 | 0.00 | 64 | 1012.7 |
| 20260508151223 | 15 | 266 | 14.5 | 24.1 | 0.00 | 0.00 | 0.00 | 65 | 1012.9 |
| 20260508150717 | 15 | 259 | 16.1 | 24.1 | 0.00 | 0.00 | 0.00 | 62 | 1012.9 |
| 20260508150211 | 14 | 257 | 17.7 | 27.4 | 0.00 | 0.00 | 0.00 | 66 | 1012.9 |
| 20260508145705 | 14 | 276 | 19.3 | 29.0 | 0.00 | 0.00 | 0.00 | 64 | 1013.0 |
| 20260508145205 | 14 | 257 | 17.7 | 30.6 | 0.00 | 0.00 | 0.00 | 65 | 1013.2 |
| 20260508144705 | 13 | 268 | 16.1 | 30.6 | 0.00 | 0.00 | 0.00 | 65 | 1013.2 |
| 20260508144425 | 13 | 231 | 14.5 | 24.1 | 0.00 | 0.00 | 0.00 | 65 | 1013.2 |
| 20260508143706 | 13 | 283 | 17.7 | 24.1 | 0.00 | 0.00 | 0.00 | 67 | 1013.2 |
| 20260508143425 | 13 | 265 | 17.7 | 27.4 | 0.00 | 0.00 | 0.00 | 66 | 1013.2 |
| 20260508142705 | 12 | 262 | 19.3 | 27.4 | 0.00 | 0.00 | 0.00 | 68 | 1013.2 |
| 20260508142203 | 12 | 272 | 19.3 | 27.4 | 0.00 | 0.00 | 0.00 | 66 | 1013.2 |
| 20260508141706 | 12 | 238 | 16.1 | 27.4 | 0.00 | 0.00 | 0.00 | 66 | 1013.2 |
| 20260508141205 | 12 | 273 | 16.1 | 24.1 | 0.00 | 0.00 | 0.00 | 69 | 1013.3 |
| 20260508140705 | 11 | 286 | 12.9 | 24.1 | 0.00 | 0.00 | 0.00 | 68 | 1013.3 |
| 20260508140205 | 11 | 256 | 11.3 | 22.5 | 0.00 | 0.00 | 0.00 | 69 | 1013.3 |
| 20260508135705 | 11 | 276 | 11.3 | 19.3 | 0.00 | 0.00 | 0.00 | 69 | 1013.3 |
| 20260508135205 | 11 | 266 | 9.7 | 19.3 | 0.00 | 0.00 | 0.00 | 70 | 1013.3 |
| 20260508134704 | 11 | 248 | 9.7 | 16.1 | 0.00 | 0.00 | 0.00 | 71 | 1013.3 |
| 20260508134204 | 11 | 241 | 8.0 | 16.1 | 0.00 | 0.00 | 0.00 | 72 | 1013.5 |
| 20260508133705 | 10 | 179 | 9.7 | 14.5 | 0.00 | 0.00 | 0.00 | 73 | 1013.5 |
| 20260508133159 | 10 | 255 | 9.7 | 16.1 | 0.00 | 0.00 | 0.00 | 74 | 1013.5 |
| 20260508132659 | 10 | 259 | 8.0 | 16.1 | 0.00 | 0.00 | 0.00 | 72 | 1013.5 |
| 20260508132159 | 10 | 219 | 8.0 | 14.5 | 0.00 | 0.00 | 0.00 | 74 | 1013.5 |
| 20260508131922 | 10 | 266 | 6.4 | 12.9 | 0.00 | 0.00 | 0.00 | 74 | 1013.5 |
| 20260508131158 | 10 | 250 | 6.4 | 12.9 | 0.00 | 0.00 | 0.00 | 75 | 1013.4 |
| 20260508130700 | 10 | 249 | 8.0 | 12.9 | 0.00 | 0.00 | 0.00 | 75 | 1013.3 |
| 20260508130159 | 10 | 251 | 8.0 | 12.9 | 0.00 | 0.00 | 0.00 | 75 | 1013.4 |
| 20260508125658 | 10 | 258 | 8.0 | 12.9 | 0.00 | 0.00 | 0.00 | 75 | 1013.6 |
| 20260508125200 | 10 | 259 | 8.0 | 12.9 | 0.00 | 0.00 | 0.00 | 74 | 1013.6 |
| 20260508124657 | 10 | 257 | 8.0 | 12.9 | 0.00 | 0.00 | 0.00 | 75 | 1013.6 |
| 20260508124159 | 9 | 238 | 8.0 | 12.9 | 0.00 | 0.00 | 0.00 | 76 | 1013.6 |
| 20260508123658 | 9 | 204 | 9.7 | 12.9 | 0.00 | 0.00 | 0.00 | 76 | 1013.5 |
| 20260508123158 | 9 | 262 | 9.7 | 14.5 | 0.00 | 0.00 | 0.00 | 75 | 1013.6 |
| 20260508122659 | 9 | 263 | 9.7 | 16.1 | 0.00 | 0.00 | 0.00 | 74 | 1013.5 |
| 20260508122153 | 9 | 258 | 9.7 | 17.7 | 0.00 | 0.00 | 0.00 | 74 | 1013.5 |
| 20260508121914 | 9 | 229 | 8.0 | 17.7 | 0.00 | 0.00 | 0.00 | 74 | 1013.5 |
| 20260508121155 | 9 | 244 | 8.0 | 11.3 | 0.00 | 0.00 | 0.00 | 75 | 1013.5 |
| 20260508120654 | 9 | 261 | 8.0 | 12.9 | 0.00 | 0.00 | 0.00 | 76 | 1013.5 |
| 20260508120636 | 9 | 277 | 8.0 | 16.1 | 0.00 | 0.00 | 0.00 | 75 | 1013.4 |
| 20260508120136 | 9 | 262 | 8.0 | 16.1 | 0.00 | 0.00 | 0.00 | 75 | 1013.4 |
| 20260508115155 | 9 | 272 | 9.7 | 17.7 | 0.00 | 0.00 | 0.00 | 75 | 1013.3 |
| 20260508114655 | 9 | 231 | 12.9 | 17.7 | 0.00 | 0.00 | 0.00 | 74 | 1013.2 |
| 20260508114156 | 9 | 245 | 11.3 | 16.1 | 0.00 | 0.00 | 0.00 | 74 | 1013.2 |
| 20260508113650 | 9 | 241 | 11.3 | 17.7 | 0.00 | 0.00 | 0.00 | 73 | 1013.2 |
| 20260508113412 | 10 | 254 | 11.3 | 17.7 | 0.00 | 0.00 | 0.00 | 72 | 1013.3 |
| 20260508112649 | 9 | 257 | 11.3 | 17.7 | 0.00 | 0.00 | 0.00 | 72 | 1013.2 |
| 20260508112149 | 9 | 256 | 11.3 | 16.1 | 0.00 | 0.00 | 0.00 | 72 | 1013.1 |
| 20260508111649 | 9 | 252 | 11.3 | 19.3 | 0.00 | 0.00 | 0.00 | 72 | 1013.0 |
| 20260508111150 | 9 | 257 | 11.3 | 19.3 | 0.00 | 0.00 | 0.00 | 73 | 1013.0 |
| 20260508110650 | 9 | 255 | 11.3 | 16.1 | 0.00 | 0.00 | 0.00 | 73 | 1012.9 |
| 20260508110414 | 9 | 246 | 9.7 | 16.1 | 0.00 | 0.00 | 0.00 | 74 | 1012.9 |
| 20260508105651 | 8 | 243 | 9.7 | 14.5 | 0.00 | 0.00 | 0.00 | 75 | 1012.8 |
| 20260508105144 | 8 | 258 | 8.0 | 14.5 | 0.00 | 0.00 | 0.00 | 76 | 1012.8 |
| 20260508104638 | 8 | 210 | 8.0 | 11.3 | 0.00 | 0.00 | 0.00 | 76 | 1012.7 |
| 20260508104617 | 8 | 240 | 6.4 | 11.3 | 0.00 | 0.00 | 0.00 | 77 | 1012.8 |
| 20260508103633 | 8 | 251 | 4.8 | 8.0 | 0.00 | 0.00 | 0.00 | 77 | 1012.7 |
| 20260508103134 | 8 | 257 | 4.8 | 8.0 | 0.00 | 0.00 | 0.00 | 78 | 1012.6 |
| 20260508102633 | 8 | 232 | 3.2 | 8.0 | 0.00 | 0.00 | 0.00 | 77 | 1012.5 |
| 20260508102135 | 8 | 233 | 3.2 | 8.0 | 0.00 | 0.00 | 0.00 | 77 | 1012.6 |
| 20260508101632 | 8 | 235 | 3.2 | 8.0 | 0.00 | 0.00 | 0.00 | 76 | 1012.6 |
| 20260508101129 | 8 | 257 | 4.8 | 8.0 | 0.00 | 0.00 | 0.00 | 76 | 1012.6 |
| 20260508100850 | 8 | 221 | 6.4 | 11.3 | 0.00 | 0.00 | 0.00 | 74 | 1012.6 |
| 20260508100129 | 8 | 219 | 6.4 | 11.3 | 0.00 | 0.00 | 0.00 | 74 | 1012.6 |
| 20260508095630 | 8 | 235 | 6.4 | 12.9 | 0.00 | 0.00 | 0.00 | 73 | 1012.6 |
| 20260508095131 | 8 | 264 | 6.4 | 12.9 | 0.00 | 0.00 | 0.00 | 73 | 1012.5 |
| 20260508094630 | 9 | 252 | 8.0 | 12.9 | 0.00 | 0.00 | 0.00 | 72 | 1012.5 |
| 20260508094129 | 9 | 247 | 8.0 | 14.5 | 0.00 | 0.00 | 0.00 | 72 | 1012.6 |
| 20260508093629 | 9 | 245 | 9.7 | 14.5 | 0.00 | 0.00 | 0.00 | 71 | 1012.6 |
| 20260508093129 | 9 | 254 | 9.7 | 14.5 | 0.00 | 0.00 | 0.00 | 70 | 1012.6 |
| 20260508092629 | 9 | 270 | 11.3 | 16.1 | 0.00 | 0.00 | 0.00 | 70 | 1012.6 |
| 20260508092129 | 9 | 262 | 11.3 | 16.1 | 0.00 | 0.00 | 0.00 | 70 | 1012.6 |
| 20260508091629 | 9 | 237 | 9.7 | 16.1 | 0.00 | 0.00 | 0.00 | 71 | 1012.6 |
| 20260508091129 | 9 | 247 | 9.7 | 14.5 | 0.00 | 0.00 | 0.00 | 72 | 1012.7 |
| 20260508090853 | 8 | 245 | 9.7 | 16.1 | 0.00 | 0.00 | 0.00 | 72 | 1012.8 |
| 20260508090127 | 8 | 241 | 8.0 | 16.1 | 0.00 | 0.00 | 0.00 | 74 | 1012.7 |
| 20260508085627 | 8 | 257 | 6.4 | 12.9 | 0.00 | 0.00 | 0.00 | 75 | 1012.8 |
| 20260508085351 | 8 | 256 | 4.8 | 11.3 | 0.00 | 0.00 | 0.00 | 75 | 1012.7 |
| 20260508084629 | 8 | 259 | 4.8 | 9.7 | 0.00 | 0.00 | 0.00 | 75 | 1012.7 |
| 20260508084128 | 8 | 208 | 4.8 | 9.7 | 0.00 | 0.00 | 0.00 | 75 | 1012.7 |
| 20260508083825 | 8 | 232 | 6.4 | 12.9 | 0.00 | 0.00 | 0.00 | 75 | 1012.8 |
| 20260508083717 | 8 | 250 | 6.4 | 11.3 | 0.00 | 0.00 | 0.00 | 75 | 1012.8 |
| 20260508082850 | 8 | 256 | 8.0 | 14.5 | 0.00 | 0.00 | 0.00 | 74 | 1012.8 |
| 20260508082121 | 8 | 236 | 8.0 | 14.5 | 0.00 | 0.00 | 0.00 | 74 | 1012.7 |
| 20260508081621 | 8 | 259 | 8.0 | 14.5 | 0.00 | 0.00 | 0.00 | 73 | 1012.8 |
| 20260508081123 | 8 | 240 | 11.3 | 17.7 | 0.00 | 0.00 | 0.00 | 72 | 1012.9 |
| 20260508080621 | 8 | 235 | 11.3 | 17.7 | 0.00 | 0.00 | 0.00 | 72 | 1012.9 |
| 20260508080121 | 8 | 250 | 9.7 | 14.5 | 0.00 | 0.00 | 0.00 | 72 | 1012.9 |
| 20260508075616 | 8 | 250 | 9.7 | 14.5 | 0.00 | 0.00 | 0.00 | 73 | 1012.9 |
| 20260508075318 | 8 | 236 | 9.7 | 14.5 | 0.00 | 0.00 | 0.00 | 73 | 1012.8 |
| 20260508075200 | 8 | 247 | 9.7 | 14.5 | 0.00 | 0.00 | 0.00 | 73 | 1012.9 |
| 20260508074058 | 8 | 247 | 9.7 | 14.5 | 0.00 | 0.00 | 0.00 | 73 | 1012.9 |
| 20260508073815 | 8 | 263 | 9.7 | 14.5 | 0.00 | 0.00 | 0.00 | 74 | 1012.9 |
| 20260508073046 | 8 | 240 | 8.0 | 14.5 | 0.00 | 0.00 | 0.00 | 74 | 1012.9 |
| 20260508072540 | 8 | 246 | 8.0 | 14.5 | 0.00 | 0.00 | 0.00 | 75 | 1012.8 |
| 20260508072034 | 8 | 259 | 8.0 | 14.5 | 0.00 | 0.00 | 0.00 | 75 | 1012.8 |
| 20260508071528 | 8 | 261 | 6.4 | 12.9 | 0.00 | 0.00 | 0.00 | 76 | 1012.9 |
| 20260508071022 | 8 | 264 | 4.8 | 12.9 | 0.00 | 0.00 | 0.00 | 76 | 1012.9 |
| 20260508071000 | 8 | 214 | 4.8 | 9.7 | 0.00 | 0.00 | 0.00 | 76 | 1013.0 |
| 20260508070010 | 8 | 246 | 4.8 | 9.7 | 0.00 | 0.00 | 0.00 | 76 | 1013.0 |
| 20260508065504 | 8 | 246 | 4.8 | 12.9 | 0.00 | 0.00 | 0.00 | 75 | 1013.1 |
| 20260508064958 | 8 | 235 | 4.8 | 12.9 | 0.00 | 0.00 | 0.00 | 75 | 1013.0 |
| 20260508064452 | 8 | 206 | 4.8 | 11.3 | 0.00 | 0.00 | 0.00 | 75 | 1013.2 |
| 20260508063946 | 8 | 243 | 3.2 | 11.3 | 0.00 | 0.00 | 0.00 | 75 | 1013.2 |
| 20260508063924 | 8 | 236 | 4.8 | 11.3 | 0.00 | 0.00 | 0.00 | 74 | 1013.2 |
| 20260508062934 | 8 | 256 | 6.4 | 12.9 | 0.00 | 0.00 | 0.00 | 73 | 1013.3 |
| 20260508062428 | 8 | 274 | 8.0 | 12.9 | 0.00 | 0.00 | 0.00 | 73 | 1013.2 |
| 20260508061922 | 8 | 243 | 8.0 | 14.5 | 0.00 | 0.00 | 0.00 | 72 | 1013.3 |
| 20260508061416 | 8 | 252 | 8.0 | 14.5 | 0.00 | 0.00 | 0.00 | 72 | 1013.3 |
| 20260508061141 | 9 | 236 | 8.0 | 14.5 | 0.00 | 0.00 | 0.00 | 72 | 1013.3 |
| 20260508060404 | 9 | 223 | 8.0 | 16.1 | 0.00 | 0.00 | 0.00 | 72 | 1013.3 |
| 20260508055858 | 9 | 240 | 9.7 | 16.1 | 0.00 | 0.00 | 0.00 | 72 | 1013.4 |
| 20260508055847 | 9 | 254 | 11.3 | 17.7 | 0.00 | 0.00 | 0.00 | 71 | 1013.4 |
| 20260508054846 | 9 | 250 | 11.3 | 17.7 | 0.00 | 0.00 | 0.00 | 71 | 1013.4 |
| 20260508054340 | 9 | 248 | 11.3 | 17.7 | 0.00 | 0.00 | 0.00 | 71 | 1013.3 |
| 20260508053834 | 9 | 243 | 11.3 | 17.7 | 0.00 | 0.00 | 0.00 | 71 | 1013.4 |
| 20260508053328 | 9 | 249 | 11.3 | 16.1 | 0.00 | 0.00 | 0.00 | 71 | 1013.3 |
| 20260508052822 | 9 | 249 | 12.9 | 17.7 | 0.00 | 0.00 | 0.00 | 71 | 1013.3 |
| 20260508052316 | 10 | 250 | 12.9 | 19.3 | 0.00 | 0.00 | 0.00 | 71 | 1013.4 |
| 20260508051810 | 10 | 259 | 12.9 | 22.5 | 0.00 | 0.00 | 0.00 | 71 | 1013.4 |
| 20260508051526 | 9 | 245 | 11.3 | 22.5 | 0.00 | 0.00 | 0.00 | 71 | 1013.3 |
| 20260508050758 | 9 | 240 | 9.7 | 16.1 | 0.00 | 0.00 | 0.00 | 72 | 1013.3 |
| 20260508050516 | 9 | 255 | 9.7 | 16.1 | 0.00 | 0.00 | 0.00 | 73 | 1013.3 |
| 20260508050233 | 9 | 250 | 9.7 | 16.1 | 0.00 | 0.00 | 0.00 | 72 | 1013.3 |
| 20260508045240 | 9 | 240 | 8.0 | 16.1 | 0.00 | 0.00 | 0.00 | 73 | 1013.3 |
| 20260508044734 | 9 | 259 | 9.7 | 16.1 | 0.00 | 0.00 | 0.00 | 73 | 1013.3 |
| 20260508044228 | 9 | 252 | 8.0 | 16.1 | 0.00 | 0.00 | 0.00 | 74 | 1013.3 |
| 20260508043946 | 9 | 219 | 6.4 | 16.1 | 0.00 | 0.00 | 0.00 | 75 | 1013.3 |
| 20260508043446 | 9 | 229 | 3.2 | 9.7 | 0.00 | 0.00 | 0.00 | 75 | 1013.2 |
| 20260508042710 | 9 | 226 | 3.2 | 9.7 | 0.00 | 0.00 | 0.00 | 76 | 1013.2 |
| 20260508042205 | 9 | 257 | 3.2 | 9.7 | 0.00 | 0.00 | 0.00 | 76 | 1013.2 |
| 20260508041658 | 9 | 270 | 3.2 | 9.7 | 0.00 | 0.00 | 0.00 | 76 | 1013.2 |
| 20260508041155 | 9 | 206 | 3.2 | 8.0 | 0.00 | 0.00 | 0.00 | 76 | 1013.2 |
| 20260508040914 | 9 | 257 | 3.2 | 12.9 | 0.00 | 0.00 | 0.00 | 75 | 1013.2 |
| 20260508040155 | 9 | 250 | 3.2 | 12.9 | 0.00 | 0.00 | 0.00 | 75 | 1013.2 |
| 20260508035651 | 9 | 231 | 3.2 | 9.7 | 0.00 | 0.00 | 0.00 | 74 | 1013.3 |
| 20260508035153 | 9 | 242 | 3.2 | 9.7 | 0.00 | 0.00 | 0.00 | 74 | 1013.3 |
| 20260508034652 | 9 | 238 | 3.2 | 9.7 | 0.00 | 0.00 | 0.00 | 74 | 1013.3 |
| 20260508034152 | 9 | 199 | 3.2 | 9.7 | 0.00 | 0.00 | 0.00 | 77 | 1013.2 |
| 20260508033911 | 9 | 248 | 3.2 | 9.7 | 0.00 | 0.00 | 0.00 | 76 | 1013.1 |
| 20260508033149 | 9 | 226 | 1.6 | 8.0 | 0.00 | 0.00 | 0.00 | 76 | 1013.1 |
| 20260508032651 | 9 | 246 | 0.0 | 4.8 | 0.00 | 0.00 | 0.00 | 77 | 1013.0 |
| 20260508032150 | 9 | 252 | 0.0 | 4.8 | 0.00 | 0.00 | 0.00 | 77 | 1013.0 |
| 20260508031647 | 9 | 240 | 0.0 | 4.8 | 0.00 | 0.00 | 0.00 | 78 | 1013.2 |
| 20260508031147 | 9 | 208 | 0.0 | 4.8 | 0.00 | 0.00 | 0.00 | 78 | 1013.3 |
| 20260508030648 | 9 | 269 | 0.0 | 4.8 | 0.00 | 0.00 | 0.00 | 79 | 1013.3 |
| 20260508030146 | 9 | 203 | 0.0 | 3.2 | 0.00 | 0.00 | 0.00 | 78 | 1013.3 |
| 20260508025643 | 9 | 237 | 1.6 | 4.8 | 0.00 | 0.00 | 0.00 | 79 | 1013.4 |
| 20260508025141 | 9 | 235 | 1.6 | 4.8 | 0.00 | 0.00 | 0.00 | 78 | 1013.5 |
| 20260508024641 | 9 | 218 | 1.6 | 4.8 | 0.00 | 0.00 | 0.00 | 78 | 1013.5 |
| 20260508024142 | 9 | 258 | 0.0 | 3.2 | 0.00 | 0.00 | 0.00 | 78 | 1013.4 |
| 20260508023636 | 9 | 229 | 0.0 | 3.2 | 0.00 | 0.00 | 0.00 | 77 | 1013.4 |
| 20260508023130 | 9 | 250 | 0.0 | 4.8 | 0.00 | 0.00 | 0.00 | 77 | 1013.5 |
| 20260508022630 | 10 | 250 | 0.0 | 4.8 | 0.00 | 0.00 | 0.00 | 77 | 1013.5 |
| 20260508022359 | 10 | 260 | 0.0 | 3.2 | 0.00 | 0.00 | 0.00 | 76 | 1013.5 |
| 20260508021625 | 10 | 191 | 0.0 | 4.8 | 0.00 | 0.00 | 0.00 | 76 | 1013.4 |
| 20260508021125 | 10 | 231 | 3.2 | 8.0 | 0.00 | 0.00 | 0.00 | 76 | 1013.4 |
| 20260508021107 | 10 | 260 | 4.8 | 8.0 | 0.00 | 0.00 | 0.00 | 76 | 1013.5 |
| 20260508020124 | 10 | 244 | 3.2 | 8.0 | 0.00 | 0.00 | 0.00 | 75 | 1013.4 |
| 20260508015623 | 10 | 221 | 1.6 | 8.0 | 0.00 | 0.00 | 0.00 | 74 | 1013.4 |
| 20260508015124 | 10 | 248 | 1.6 | 4.8 | 0.00 | 0.00 | 0.00 | 75 | 1013.2 |
| 20260508014844 | 10 | 248 | 1.6 | 4.8 | 0.00 | 0.00 | 0.00 | 74 | 1013.2 |
| 20260508014344 | 10 | 248 | 1.6 | 6.4 | 0.00 | 0.00 | 0.00 | 73 | 1013.2 |
| 20260508013620 | 10 | 246 | 4.8 | 9.7 | 0.00 | 0.00 | 0.00 | 73 | 1013.3 |